MET-2/21
1 22782U 93055A   05250.85552877  .00000086  00000-0  64522-4 0 02970
2 22782 082.5506 195.4044 0020961 250.6872 109.2081 13.83593685607009
OKEAN-4
1 23317U 94066A   05251.45476915  .00000268  00000-0  30552-4 0  7279
2 23317 082.5421 179.7483 0020855 219.9683 140.0005 14.82219039588243
NOAA-14
1 23455U 94089A   05251.24473248  .00000084  00000-0  68978-4 0  7561
2 23455 099.0817 300.9027 0010094 125.2038 235.0069 14.13594640551239
SICH-1
1 23657U 95046A   05250.78636845  .00000361  00000-0  43183-4 0 05300
2 23657 082.5322 321.2309 0023026 208.3984 151.5977 14.81225246540182
NOAA-15
1 25338U 98030A   05251.51363244  .00000076  00000-0  51158-4 0  1788
2 25338 098.5154 257.3193 0011546 113.7908 246.4471 14.24537043380610
RESURS
1 25394U 98043A   05250.97919888  .00000038  00000-0  34905-4 0 01783
2 25394 098.5347 317.8129 0000498 280.6814 079.4311 14.24078562372233
FENGYUN1
1 25730U 99025A   05250.63000969  .00000167  00000-0  11474-3 0  5065
2 25730 098.6105 249.1330 0013757 224.1433 135.8657 14.11799386326142
OKEAN-0
1 25860U 99039A   05250.75386074  .00000123  00000-0  26219-4 0 05326
2 25860 097.7539 273.0045 0000789 060.6309 299.4959 14.73285827330169
NOAA-16
1 26536U 00055A   05251.53580595 -.00000118  00000-0 -39529-4 0  5096
2 26536 099.0218 210.4948 0010216 189.1749 170.9283 14.12268796255828
NOAA-17
1 27453U 02032A   05251.28952083  .00000140  00000-0  80346-4 0  5286
2 27453 098.6554 323.5248 0012167 170.3864 189.7561 14.23699902166660
NOAA-18
1 28654U 05018A   05251.24884572  .00000244  00000-0  16021-3 0  1436
2 28654 098.7487 196.0911 0013755 302.9745 057.0117 14.10880248 15629
HUBBLE
1 20580U 90037B   05251.77236601  .00000525  00000-0  28334-4 0  4226
2 20580 028.4666 084.1178 0003524 083.2246 276.8744 14.99823191642802
UARS
1 21701U 91063B   05250.88878405 -.00000077  00000-0  13150-4 0 05265
2 21701 056.9787 214.7899 0006712 100.3673 259.8123 15.03841479765933
PO-34
1 25520U 98064B   05250.90792647  .00000892  00000-0  34867-4 0 02722
2 25520 028.4584 119.1974 0005816 051.4299 308.6791 15.16416336379154
ISS
1 25544U 98067A   05251.96167321  .00015379  00000-0  11622-3 0  3206
2 25544 051.6438 191.9841 0001930 044.3425 041.2681 15.72661637388866
OO-38
1 26063U 00004C   05251.68421393 -.00000038  00000-0  70919-5 0  4358
2 26063 100.2032 126.9583 0037026 179.7508 180.3711 14.35732100294277
NO-45
1 26932U 01043D   05251.75687460  .00000120  00000-0  79146-4 0  1206
2 26932 067.0602 012.2207 0004200 248.1266 111.9346 14.29498467205741
